Meath Environmental Platform

Observations

Time Sensor AQI SAQ Temp °C Hum % Pres Pa CO μg/m³ H₂S μg/m³ NO μg/m³ NO₂ μg/m³ O₃ μg/m³ SO₂ μg/m³ CO₂e PPM VOC PPM PM1 μg/m³ PM2.5 μg/m³ PM4 μg/m³ PM10 μg/m³ TPS µm
Wednesday 12 August 2026
05:54 Trim Market St 2 19.4 68 56,276 0.13 0 1.19 12.31 68.2 0 2.85 5.08 7.53
05:53 Trim Market St 2 19.4 68 56,283 0.13 0 1.24 25.67 66.13 0 1.43 4.11 8.17
05:52 Trim Patrick St 2 18.8 72 38,460 0.09 1.48 1.33 14.13 54.28 0 6.29 11.51 12.66
05:52 Trim Market St 2 19.3 68 56,287 0.12 0 1.25 17.71 62.42 0 4.28 6.55 10.08
05:51 Trim Market St 2 19.3 68 56,294 0.12 0 1.24 11.84 70.39 0 4.99 6.55 10.08
05:50 Trim Market St 2 19.3 68 56,291 0.13 0 1.21 13.26 70.43 0 3.56 5.08 7.53
05:49 Trim Market St 2 19.3 68 56,295 0.12 0 1.2 14.22 64.18 0 2.85 6.54 9.44
05:48 Trim Patrick St 2 18.7 72 38,460 0.09 2.09 1.29 22.68 59.44 0 8.86 12.95 14.25
05:48 Trim Market St 2 19.3 68 56,305 0.13 0 1.21 15.33 67.31 0 4.28 5.57 8.8
05:47 Trim Patrick St 2 18.7 72 38,460 0.07 0 1.33 14.31 55.62 0 7.14 12.19 13.41
05:47 Trim Market St 2 19.3 68 56,312 0.12 0 1.21 13.73 66.24 0 3.56 6.06 8.8
05:46 Trim Patrick St 2 18.7 72 38,460 0.09 0 1.25 14.44 44.1 0 7.14 13.6 14.96
05:46 Trim Market St 2 19.2 68 56,322 0.13 0 1.24 22.62 60.32 0 3.56 4.59 8.17
05:45 Trim Patrick St 2 18.6 72 38,460 0.1 0.83 1.25 18.66 54.69 0 8 12.91 14.2
05:45 Trim Market St 2 19.2 68 56,331 0.12 0 1.24 11.87 76.27 0 4.28 6.06 8.8
05:44 Trim Patrick St 2 18.6 72 38,460 0.08 2.41 1.25 16.17 53.75 0 6.29 11.46 12.61
05:43 Trim Patrick St 2 18.6 72 38,460 0.07 2.56 1.23 35.28 55 0 8 13.62 14.98
05:42 Trim Market St 2 19.2 68 56,316 0.15 0 1.24 20.23 66.49 0 4.28 6.06 8.8
05:42 Trim Patrick St 2 18.6 72 38,460 0.08 1.23 1.24 8.06 37.94 0 7.14 12.21 13.43
05:41 Trim Market St 2 19.2 68 56,317 0.11 0 1.24 12.97 68.18 0 3.56 5.58 8.17